sat.trackr.live / text

‹ back to catalog

STARLINK-36369

NORAD 67723 · 2026-026C

PAYLOAD ACTIVE UNKNOWN

§ Identity

Operator
Country
US
Launch date
2026-02-11
Launch site
AFWTR
Launch vehicle
Mass (kg)
RCS (m²)

Purposes: comms

External: N2YO · Heavens-Above · Gunter

§ Orbital elements

Epoch: 2026-05-25T02:34:59.390976Z

Period
93.91 min
Inclination
97.2849°
Eccentricity
0.0000880
Mean motion
15.33424132 rev/d
Perigee alt
465.0 km
Apogee alt
466.2 km
Semi-major
6,843.7 km
B*
4.3608e-4
RAAN
198.5769°
Arg perigee
197.4839°
Mean anomaly
162.6374°
Rev number
1,583

§ Raw data

STARLINK-363691 67723U 26026C   26145.10763184  .00014020  00000+0  43608-3 0  99992 67723  97.2849 198.5769 0000880 197.4839 162.6374 15.33424132 15832

JSON: /api/v1/satellites/67723 · /tle

For live sub-satellite position, see the globe view (requires WebGL).

§ Visibility from observer

Set your observer location to see the next 7 days of passes ≥ 10°. The values pass through the URL so the page stays shareable.

No JS? Fill the form by hand. The geolocation button needs JavaScript.